Montevideo, MN

6:17 AM CST on February 27, 2017 (GMT -0600)
Montevideo-Chippewa County

Weather History for KMVE - March, 2013

Change the Weather History Date:

Wednesday, March 27, 2013

  Actual Average Record
Temperature  
Mean Temperature 22 °F -  
Max Temperature 33 °F 48 °F 67 °F (1968)
Min Temperature 10 °F 26 °F 1 °F (1955)
Degree Days  
Heating Degree Days 44    
Moisture  
Dew Point 22 °F    
Average Humidity 92    
Maximum Humidity 100    
Minimum Humidity 75    
Precipitation  
Precipitation 0.00 in - - ()
Sea Level Pressure  
Sea Level Pressure 30.30 in    
Wind  
Wind Speed 4 mph (SSE)    
Max Wind Speed 13 mph    
Max Gust Speed 16 mph    
Visibility 9 miles    
Events      
Averages and records for this station are not official NWS values.
T = Trace of Precipitation, MM = Missing Value Source: NWS Daily Summary

Daily Weather History Graph

Daily Weather History Graph

Search for Another Location

Airport or City:

Trip Planner

Search our weather history database for the weather conditions in past years. The results will help you decide how hot, cold, wet, or windy it might be!

Date:

Astronomy

Mar. 27, 2013 Rise Set
Actual Time 7:12 AM CDT 7:44 PM CDT
Civil Twilight 6:42 AM CDT 8:14 PM CDT
Nautical Twilight 6:08 AM CDT 8:49 PM CDT
Astronomical Twilight 5:32 AM CDT 9:25 PM CDT
Moon 8:33 PM CDT 7:01 AM CDT
Length of Visible Light 13h 31m
Length of Day
12h 32m
Full, 100% of the Moon is Illuminated
Mar 27
Full
Apr 2
Last Quarter
Apr 10
New
Apr 18
First Quarter
Apr 25
Full

Hourly Weather History & Observations

Time (CDT) Temp. Windchill Dew Point Humidity Pressure Visibility Wind Dir Wind Speed Gust Speed Precip Events Conditions
12:14 AM 17.6 °F - 17.6 °F 100% 30.30 in 10.0 mi Calm Calm - N/A   Clear
12:34 AM 17.6 °F - 17.6 °F 100% 30.31 in 10.0 mi Calm Calm - N/A   Clear
12:54 AM 17.6 °F - 17.6 °F 100% 30.31 in 10.0 mi Calm Calm - N/A   Clear
1:14 AM 17.6 °F - 17.6 °F 100% 30.31 in 10.0 mi Calm Calm - N/A   Clear
1:34 AM 17.6 °F - 17.6 °F 100% 30.31 in 10.0 mi Calm Calm - N/A   Clear
1:54 AM 15.8 °F - 15.8 °F 100% 30.31 in 10.0 mi Calm Calm - N/A   Mostly Cloudy
2:14 AM 17.6 °F - 17.6 °F 100% 30.31 in 10.0 mi Calm Calm - N/A   Overcast
2:34 AM 17.6 °F - 17.6 °F 100% 30.31 in 7.0 mi Calm Calm - N/A   Scattered Clouds
2:54 AM 17.6 °F - 17.6 °F 100% 30.31 in 7.0 mi Calm Calm - N/A   Clear
3:14 AM 15.8 °F - 15.8 °F 100% 30.31 in 7.0 mi Calm Calm - N/A   Clear
3:34 AM 15.8 °F - 15.8 °F 100% 30.30 in 5.0 mi Calm Calm - N/A   Clear
3:54 AM 15.8 °F 10.2 °F 15.8 °F 100% 30.30 in 5.0 mi ESE 3.5 mph - N/A   Clear
4:14 AM 14.0 °F 6.5 °F 14.0 °F 100% 30.30 in 1.8 mi ESE 4.6 mph - N/A   Mostly Cloudy
4:34 AM 14.0 °F - 14.0 °F 100% 30.29 in 4.0 mi Calm Calm - N/A   Scattered Clouds
4:54 AM 14.0 °F - 12.2 °F 93% 30.29 in 5.0 mi Calm Calm - N/A   Clear
5:14 AM 14.0 °F 8.2 °F 12.2 °F 93% 30.28 in 4.0 mi SE 3.5 mph - N/A   Clear
5:34 AM 12.2 °F 6.1 °F 10.4 °F 92% 30.28 in 5.0 mi ESE 3.5 mph - N/A   Clear
5:54 AM 14.0 °F 6.5 °F 12.2 °F 93% 30.28 in 5.0 mi SE 4.6 mph - N/A   Clear
6:14 AM 14.0 °F 8.2 °F 12.2 °F 93% 30.28 in 5.0 mi SE 3.5 mph - N/A   Clear
6:34 AM 12.2 °F - 12.2 °F 100% 30.28 in 5.0 mi Calm Calm - N/A   Clear
6:54 AM 10.4 °F - 10.4 °F 100% 30.29 in 7.0 mi Calm Calm - N/A   Clear
7:14 AM 10.4 °F 4.0 °F 10.4 °F 100% 30.30 in 10.0 mi SE 3.5 mph - N/A   Clear
7:34 AM 12.2 °F 6.1 °F 10.4 °F 92% 30.30 in 10.0 mi SE 3.5 mph - N/A   Clear
7:54 AM 12.2 °F 4.3 °F 12.2 °F 100% 30.31 in 7.0 mi SSE 4.6 mph - N/A   Clear
8:14 AM 14.0 °F 8.2 °F 14.0 °F 100% 30.31 in 7.0 mi South 3.5 mph - N/A   Clear
8:34 AM 15.8 °F 10.2 °F 14.0 °F 93% 30.31 in 7.0 mi SSE 3.5 mph - N/A   Clear
8:54 AM 15.8 °F 10.2 °F 15.8 °F 100% 30.32 in 7.0 mi SSE 3.5 mph - N/A   Clear
9:14 AM 17.6 °F 10.7 °F 15.8 °F 93% 30.32 in 5.0 mi South 4.6 mph - N/A   Scattered Clouds
9:34 AM 17.6 °F 10.7 °F 17.6 °F 100% 30.31 in 4.0 mi South 4.6 mph - N/A   Scattered Clouds
9:54 AM 19.4 °F 11.5 °F 19.4 °F 100% 30.31 in 5.0 mi South 5.8 mph - N/A   Clear
10:14 AM 21.2 °F 12.6 °F 21.2 °F 100% 30.31 in 7.0 mi South 6.9 mph - N/A   Clear
10:34 AM 23.0 °F 14.7 °F 23.0 °F 100% 30.32 in 7.0 mi SSE 6.9 mph - N/A   Clear
10:53 AM 24.8 °F 16.9 °F 24.8 °F 100% 30.32 in 10.0 mi SSE 6.9 mph - N/A   Mostly Cloudy
11:14 AM 26.6 °F 18.2 °F 26.6 °F 100% 30.32 in 10.0 mi SSE 8.1 mph - N/A   Overcast
11:34 AM 26.6 °F 18.2 °F 26.6 °F 100% 30.32 in 10.0 mi South 8.1 mph - N/A   Overcast
11:54 AM 28.4 °F 19.7 °F 28.4 °F 100% 30.32 in 10.0 mi SSE 9.2 mph - N/A   Overcast
12:14 PM 30.2 °F 21.9 °F 28.4 °F 93% 30.32 in 10.0 mi SSE 9.2 mph - N/A   Overcast
12:34 PM 32.0 °F 24.2 °F 28.4 °F 87% 30.32 in 10.0 mi SSE 9.2 mph - N/A   Overcast
12:54 PM 32.0 °F 24.2 °F 28.4 °F 87% 30.31 in 10.0 mi SE 9.2 mph - N/A   Overcast
1:14 PM 32.0 °F 24.8 °F 26.6 °F 80% 30.32 in 10.0 mi SE 8.1 mph - N/A   Overcast
1:34 PM 33.8 °F 26.4 °F 26.6 °F 75% 30.31 in 10.0 mi SE 9.2 mph - N/A   Overcast
1:54 PM 33.8 °F 25.8 °F 28.4 °F 81% 30.31 in 10.0 mi SSE 10.4 mph - N/A   Overcast
2:14 PM 33.8 °F 25.8 °F 28.4 °F 81% 30.30 in 10.0 mi SSE 10.4 mph - N/A   Mostly Cloudy
2:34 PM 33.8 °F 25.3 °F 28.4 °F 81% 30.30 in 10.0 mi SSE 11.5 mph - N/A   Scattered Clouds
2:54 PM 33.8 °F 25.8 °F 28.4 °F 81% 30.30 in 10.0 mi SSE 10.4 mph - N/A   Mostly Cloudy
3:14 PM 33.8 °F 25.8 °F 28.4 °F 81% 30.29 in 10.0 mi SE 10.4 mph - N/A   Mostly Cloudy
3:34 PM 33.8 °F 25.8 °F 30.2 °F 87% 30.29 in 10.0 mi SE 10.4 mph - N/A   Scattered Clouds
3:54 PM 33.8 °F 25.3 °F 28.4 °F 81% 30.29 in 10.0 mi SE 11.5 mph - N/A   Scattered Clouds
4:14 PM 33.8 °F 25.8 °F 28.4 °F 81% 30.28 in 10.0 mi SE 10.4 mph - N/A   Scattered Clouds
4:34 PM 33.8 °F 25.3 °F 28.4 °F 81% 30.28 in 10.0 mi SE 11.5 mph - N/A   Clear
4:54 PM 33.8 °F 25.3 °F 28.4 °F 81% 30.28 in 10.0 mi SE 11.5 mph - N/A   Clear
5:14 PM 33.8 °F 25.8 °F 28.4 °F 81% 30.28 in 10.0 mi SE 10.4 mph - N/A   Clear
5:34 PM 33.8 °F 24.8 °F 28.4 °F 81% 30.28 in 10.0 mi SE 12.7 mph - N/A   Clear
5:53 PM 33.8 °F 25.3 °F 28.4 °F 81% 30.28 in 10.0 mi SE 11.5 mph 16.1 mph N/A   Clear
6:14 PM 33.8 °F 25.3 °F 28.4 °F 81% 30.27 in 10.0 mi SSE 11.5 mph - N/A   Clear
6:34 PM 33.8 °F 26.4 °F 28.4 °F 81% - 10.0 mi SE 9.2 mph - N/A   Clear
6:53 PM 33.8 °F 25.8 °F 28.4 °F 81% 30.28 in 10.0 mi SE 10.4 mph - N/A   Clear
7:14 PM 32.0 °F 23.6 °F 28.4 °F 87% 30.28 in 10.0 mi SE 10.4 mph - N/A   Clear
7:34 PM 32.0 °F 24.8 °F 26.6 °F 80% 30.28 in 10.0 mi SE 8.1 mph - N/A   Clear
7:53 PM 30.2 °F 22.6 °F 26.6 °F 86% 30.29 in 10.0 mi SE 8.1 mph - N/A   Clear
8:14 PM 30.2 °F 22.6 °F 26.6 °F 86% 30.28 in 10.0 mi SSE 8.1 mph - N/A   Clear
8:34 PM 28.4 °F 19.7 °F 26.6 °F 93% 30.29 in 10.0 mi SSE 9.2 mph - N/A   Clear
8:54 PM 28.4 °F 19.1 °F 26.6 °F 93% 30.29 in 10.0 mi SSE 10.4 mph - N/A   Clear
9:14 PM 28.4 °F 19.7 °F 26.6 °F 93% 30.29 in 10.0 mi SSE 9.2 mph - N/A   Clear
9:34 PM 28.4 °F 20.4 °F 26.6 °F 93% 30.30 in 10.0 mi SSE 8.1 mph - N/A   Clear
9:54 PM 28.4 °F 19.7 °F 24.8 °F 86% 30.30 in 10.0 mi SSE 9.2 mph - N/A   Clear
10:14 PM 28.4 °F 20.4 °F 24.8 °F 86% 30.30 in 10.0 mi SSE 8.1 mph - N/A   Clear
10:34 PM 28.4 °F 19.7 °F 24.8 °F 86% 30.30 in 10.0 mi SSE 9.2 mph - N/A   Clear
10:54 PM 26.6 °F 17.5 °F 24.8 °F 93% 30.30 in 10.0 mi SSE 9.2 mph - N/A   Clear
11:14 PM 26.6 °F 18.2 °F 24.8 °F 93% 30.30 in 10.0 mi SSE 8.1 mph - N/A   Clear
11:34 PM 26.6 °F 18.2 °F 23.0 °F 86% 30.30 in 10.0 mi SSE 8.1 mph - N/A   Clear
11:54 PM 24.8 °F 16.9 °F 23.0 °F 93% 30.30 in 10.0 mi SSE 6.9 mph - N/A   Clear